Year,Month,Day,Hour,Minute,Value (Times are PST for temperature in C)
2018,02,15,00,00,3.50
2018,02,15,00,01,3.50
2018,02,15,00,02,3.50
2018,02,15,00,03,3.50
2018,02,15,00,04,3.50
2018,02,15,00,05,3.50
2018,02,15,00,06,3.50
2018,02,15,00,07,3.60
2018,02,15,00,08,3.60
2018,02,15,00,09,3.60
2018,02,15,00,10,3.60
2018,02,15,00,11,3.60
2018,02,15,00,12,3.60
2018,02,15,00,13,3.60
2018,02,15,00,14,3.70
2018,02,15,00,15,3.60
2018,02,15,00,16,3.70
2018,02,15,00,17,3.60
2018,02,15,00,18,3.60
2018,02,15,00,19,3.60
2018,02,15,00,20,3.60
2018,02,15,00,21,3.60
2018,02,15,00,22,3.60
2018,02,15,00,23,3.60
2018,02,15,00,24,3.60
2018,02,15,00,25,3.60
2018,02,15,00,26,3.60
2018,02,15,00,27,3.60
2018,02,15,00,28,3.60
2018,02,15,00,29,3.60
2018,02,15,00,30,3.60
2018,02,15,00,31,3.50
2018,02,15,00,32,3.50
2018,02,15,00,33,3.50
2018,02,15,00,34,3.50
2018,02,15,00,35,3.50
2018,02,15,00,36,3.50
2018,02,15,00,37,3.40
2018,02,15,00,38,3.40
2018,02,15,00,39,3.40
2018,02,15,00,40,3.40
2018,02,15,00,41,3.40
2018,02,15,00,42,3.40
2018,02,15,00,43,3.40
2018,02,15,00,44,3.40
2018,02,15,00,45,3.40
2018,02,15,00,46,3.40
2018,02,15,00,47,3.40
2018,02,15,00,48,3.40
2018,02,15,00,49,3.40
2018,02,15,00,50,3.40
2018,02,15,00,51,3.50
2018,02,15,00,52,3.50
2018,02,15,00,53,3.50
2018,02,15,00,54,3.50
2018,02,15,00,55,3.50
2018,02,15,00,56,3.50
2018,02,15,00,57,3.50
2018,02,15,00,58,3.50
2018,02,15,00,59,3.50
2018,02,15,01,00,3.50
2018,02,15,01,01,3.50
2018,02,15,01,02,3.50
2018,02,15,01,03,3.50
2018,02,15,01,04,3.50
2018,02,15,01,05,3.50
2018,02,15,01,06,3.50
2018,02,15,01,07,3.40
2018,02,15,01,08,3.40
2018,02,15,01,09,3.40
2018,02,15,01,10,3.40
2018,02,15,01,11,3.40
2018,02,15,01,12,3.30
2018,02,15,01,13,3.30
2018,02,15,01,14,3.30
2018,02,15,01,15,3.30
2018,02,15,01,16,3.30
2018,02,15,01,17,3.30
2018,02,15,01,18,3.30
2018,02,15,01,19,3.30
2018,02,15,01,20,3.30
2018,02,15,01,21,3.30
2018,02,15,01,22,3.30
2018,02,15,01,23,3.30
2018,02,15,01,24,3.30
2018,02,15,01,25,3.30
2018,02,15,01,26,3.30
2018,02,15,01,27,3.30
2018,02,15,01,28,3.30
2018,02,15,01,29,3.30
2018,02,15,01,30,3.30
2018,02,15,01,31,3.30
2018,02,15,01,32,3.40
2018,02,15,01,33,3.40
2018,02,15,01,34,3.30
2018,02,15,01,35,3.30
2018,02,15,01,36,3.30
2018,02,15,01,37,3.30
2018,02,15,01,38,3.30
2018,02,15,01,39,3.30
2018,02,15,01,40,3.30
2018,02,15,01,41,3.30
2018,02,15,01,42,3.30
2018,02,15,01,43,3.30
2018,02,15,01,44,3.30
2018,02,15,01,45,3.30
2018,02,15,01,46,3.30
2018,02,15,01,47,3.30
2018,02,15,01,48,3.30
2018,02,15,01,49,3.30
2018,02,15,01,50,3.30
2018,02,15,01,51,3.30
2018,02,15,01,52,3.30
2018,02,15,01,53,3.20
2018,02,15,01,54,3.20
2018,02,15,01,55,3.20
2018,02,15,01,56,3.20
2018,02,15,01,57,3.20
2018,02,15,01,58,3.20
2018,02,15,01,59,3.20
2018,02,15,02,00,3.20
2018,02,15,02,01,3.10
2018,02,15,02,02,3.10
2018,02,15,02,03,3.10
2018,02,15,02,04,3.00
2018,02,15,02,05,3.00
2018,02,15,02,06,2.90
2018,02,15,02,07,2.90
2018,02,15,02,08,2.90
2018,02,15,02,09,2.90
2018,02,15,02,10,2.90
2018,02,15,02,11,2.90
2018,02,15,02,12,3.00
2018,02,15,02,13,3.00
2018,02,15,02,14,3.00
2018,02,15,02,15,3.10
2018,02,15,02,16,3.10
2018,02,15,02,17,3.10
2018,02,15,02,18,3.10
2018,02,15,02,19,3.10
2018,02,15,02,20,3.10
2018,02,15,02,21,3.10
2018,02,15,02,22,3.10
2018,02,15,02,23,3.10
2018,02,15,02,24,3.10
2018,02,15,02,25,3.10
2018,02,15,02,26,3.10
2018,02,15,02,27,3.10
2018,02,15,02,28,3.00
2018,02,15,02,29,2.90
2018,02,15,02,30,2.90
2018,02,15,02,31,2.80
2018,02,15,02,32,2.80
2018,02,15,02,33,2.70
2018,02,15,02,34,2.70
2018,02,15,02,35,2.60
2018,02,15,02,36,2.60
2018,02,15,02,37,2.60
2018,02,15,02,38,2.50
2018,02,15,02,39,2.50
2018,02,15,02,40,2.40
2018,02,15,02,41,2.30
2018,02,15,02,42,2.30
2018,02,15,02,43,2.30
2018,02,15,02,44,2.20
2018,02,15,02,45,2.20
2018,02,15,02,46,2.20
2018,02,15,02,47,2.20
2018,02,15,02,48,2.20
2018,02,15,02,49,2.10
2018,02,15,02,50,2.10
2018,02,15,02,51,2.10
2018,02,15,02,52,2.10
2018,02,15,02,53,2.10
2018,02,15,02,54,2.00
2018,02,15,02,55,2.00
2018,02,15,02,56,2.00
2018,02,15,02,57,2.00
2018,02,15,02,58,1.90
2018,02,15,02,59,1.90
2018,02,15,03,00,1.90
2018,02,15,03,01,1.80
2018,02,15,03,02,1.80
2018,02,15,03,03,1.80
2018,02,15,03,04,1.80
2018,02,15,03,05,1.80
2018,02,15,03,06,1.80
2018,02,15,03,07,1.80
2018,02,15,03,08,1.70
2018,02,15,03,09,1.70
2018,02,15,03,10,1.60
2018,02,15,03,11,1.60
2018,02,15,03,12,1.50
2018,02,15,03,13,1.50
2018,02,15,03,14,1.50
2018,02,15,03,15,1.50
2018,02,15,03,16,1.40
2018,02,15,03,17,1.40
2018,02,15,03,18,1.40
2018,02,15,03,19,1.40
2018,02,15,03,20,1.30
2018,02,15,03,21,1.30
2018,02,15,03,22,1.30
2018,02,15,03,23,1.30
2018,02,15,03,24,1.30
2018,02,15,03,25,1.30
2018,02,15,03,26,1.30
2018,02,15,03,27,1.30
2018,02,15,03,28,1.30
2018,02,15,03,29,1.30
2018,02,15,03,30,1.30
2018,02,15,03,31,1.30
2018,02,15,03,32,1.30
2018,02,15,03,33,1.30
2018,02,15,03,34,1.30
2018,02,15,03,35,1.30
2018,02,15,03,36,1.30
2018,02,15,03,37,1.30
2018,02,15,03,38,1.30
2018,02,15,03,39,1.30
2018,02,15,03,40,1.30
2018,02,15,03,41,1.30
2018,02,15,03,42,1.30
2018,02,15,03,43,1.30
2018,02,15,03,44,1.30
2018,02,15,03,45,1.30
2018,02,15,03,46,1.20
2018,02,15,03,47,1.20
2018,02,15,03,48,1.20
2018,02,15,03,49,1.20
2018,02,15,03,50,1.20
2018,02,15,03,51,1.20
2018,02,15,03,52,1.20
2018,02,15,03,53,1.20
2018,02,15,03,54,1.20
2018,02,15,03,55,1.20
2018,02,15,03,56,1.20
2018,02,15,03,57,1.20
2018,02,15,03,58,1.20
2018,02,15,03,59,1.20
2018,02,15,04,00,1.20
2018,02,15,04,01,1.20
2018,02,15,04,02,1.20
2018,02,15,04,03,1.20
2018,02,15,04,04,1.30
2018,02,15,04,05,1.30
2018,02,15,04,06,1.30
2018,02,15,04,07,1.40
2018,02,15,04,08,1.40
2018,02,15,04,09,1.40
2018,02,15,04,10,1.40
2018,02,15,04,11,1.40
2018,02,15,04,12,1.40
2018,02,15,04,13,1.40
2018,02,15,04,14,1.40
2018,02,15,04,15,1.40
2018,02,15,04,16,1.40
2018,02,15,04,17,1.40
2018,02,15,04,18,1.40
2018,02,15,04,19,1.40
2018,02,15,04,20,1.40
2018,02,15,04,21,1.30
2018,02,15,04,22,1.30
2018,02,15,04,23,1.30
2018,02,15,04,24,1.30
2018,02,15,04,25,1.30
2018,02,15,04,26,1.30
2018,02,15,04,27,1.30
2018,02,15,04,28,1.30
2018,02,15,04,29,1.20
2018,02,15,04,30,1.20
2018,02,15,04,31,1.20
2018,02,15,04,32,1.20
2018,02,15,04,33,1.20
2018,02,15,04,34,1.20
2018,02,15,04,35,1.20
2018,02,15,04,36,1.20
2018,02,15,04,37,1.20
2018,02,15,04,38,1.20
2018,02,15,04,39,1.20
2018,02,15,04,40,1.20
2018,02,15,04,41,1.20
2018,02,15,04,42,1.20
2018,02,15,04,43,1.10
2018,02,15,04,44,1.10
2018,02,15,04,45,1.00
2018,02,15,04,46,1.00
2018,02,15,04,47,1.00
2018,02,15,04,48,0.90
2018,02,15,04,49,0.90
2018,02,15,04,50,0.90
2018,02,15,04,51,0.90
2018,02,15,04,52,0.90
2018,02,15,04,53,1.00
2018,02,15,04,54,1.00
2018,02,15,04,55,1.00
2018,02,15,04,56,1.10
2018,02,15,04,57,1.10
2018,02,15,04,58,1.20
2018,02,15,04,59,1.20
2018,02,15,05,00,1.20
2018,02,15,05,01,1.20
2018,02,15,05,02,1.20
2018,02,15,05,03,1.10
2018,02,15,05,04,1.10
2018,02,15,05,05,1.10
2018,02,15,05,06,1.10
2018,02,15,05,07,1.00
2018,02,15,05,08,1.00
2018,02,15,05,09,1.00
2018,02,15,05,10,0.90
2018,02,15,05,11,0.90
2018,02,15,05,12,0.90
2018,02,15,05,13,0.90
2018,02,15,05,14,0.90
2018,02,15,05,15,0.90
2018,02,15,05,16,0.90
2018,02,15,05,17,0.90
2018,02,15,05,18,0.90
2018,02,15,05,19,0.90
2018,02,15,05,20,0.90
2018,02,15,05,21,0.90
2018,02,15,05,22,0.90
2018,02,15,05,23,0.90
2018,02,15,05,24,0.90
2018,02,15,05,25,0.90
2018,02,15,05,26,0.90
2018,02,15,05,27,1.00
2018,02,15,05,28,1.00
2018,02,15,05,29,1.00
2018,02,15,05,30,1.00
2018,02,15,05,31,1.00
2018,02,15,05,32,1.00
2018,02,15,05,33,1.00
2018,02,15,05,34,1.00
2018,02,15,05,35,1.00
2018,02,15,05,36,1.00
2018,02,15,05,37,1.00
2018,02,15,05,38,1.00
2018,02,15,05,39,1.10
2018,02,15,05,40,1.10
2018,02,15,05,41,1.10
2018,02,15,05,42,1.20
2018,02,15,05,43,1.20
2018,02,15,05,44,1.20
2018,02,15,05,45,1.20
2018,02,15,05,46,1.20
2018,02,15,05,47,1.20
2018,02,15,05,48,1.30
2018,02,15,05,49,1.30
2018,02,15,05,50,1.30
2018,02,15,05,51,1.30
2018,02,15,05,52,1.30
2018,02,15,05,53,1.30
2018,02,15,05,54,1.40
2018,02,15,05,55,1.40
2018,02,15,05,56,1.40
2018,02,15,05,57,1.40
2018,02,15,05,58,1.40
2018,02,15,05,59,1.40
2018,02,15,06,00,1.40
2018,02,15,06,01,1.40
2018,02,15,06,02,1.50
2018,02,15,06,03,1.40
2018,02,15,06,04,1.40
2018,02,15,06,05,1.40
2018,02,15,06,06,1.40
2018,02,15,06,07,1.30
2018,02,15,06,08,1.30
2018,02,15,06,09,1.20
2018,02,15,06,10,1.10
2018,02,15,06,11,1.00
2018,02,15,06,12,1.00
2018,02,15,06,13,0.90
2018,02,15,06,14,1.00
2018,02,15,06,15,1.00
2018,02,15,06,16,1.00
2018,02,15,06,17,1.10
2018,02,15,06,18,1.10
2018,02,15,06,19,1.10
2018,02,15,06,20,1.00
2018,02,15,06,21,1.00
2018,02,15,06,22,0.90
2018,02,15,06,23,0.90
2018,02,15,06,24,0.80
2018,02,15,06,25,0.80
2018,02,15,06,26,0.80
2018,02,15,06,27,0.80
2018,02,15,06,28,0.80
2018,02,15,06,29,0.80
2018,02,15,06,30,0.80
2018,02,15,06,31,0.70
2018,02,15,06,32,0.70
2018,02,15,06,33,0.70
2018,02,15,06,34,0.70
2018,02,15,06,35,0.70
2018,02,15,06,36,0.70
2018,02,15,06,37,0.70
2018,02,15,06,38,0.60
2018,02,15,06,39,0.60
2018,02,15,06,40,0.60
2018,02,15,06,41,0.60
2018,02,15,06,42,0.60
2018,02,15,06,43,0.60
2018,02,15,06,44,0.60
2018,02,15,06,45,0.60
2018,02,15,06,46,0.60
2018,02,15,06,47,0.50
2018,02,15,06,48,0.50
2018,02,15,06,49,0.50
2018,02,15,06,50,0.50
2018,02,15,06,51,0.50
2018,02,15,06,52,0.50
2018,02,15,06,53,0.40
2018,02,15,06,54,0.40
2018,02,15,06,55,0.40
2018,02,15,06,56,0.40
2018,02,15,06,57,0.40
2018,02,15,06,58,0.30
2018,02,15,06,59,0.30
2018,02,15,07,00,0.30
2018,02,15,07,01,0.30
2018,02,15,07,02,0.30
2018,02,15,07,03,0.30
2018,02,15,07,04,0.30
2018,02,15,07,05,0.30
2018,02,15,07,06,0.30
2018,02,15,07,07,0.30
2018,02,15,07,08,0.30
2018,02,15,07,09,0.40
2018,02,15,07,10,0.40
2018,02,15,07,11,0.40
2018,02,15,07,12,0.50
2018,02,15,07,13,0.50
2018,02,15,07,14,0.50
2018,02,15,07,15,0.50
2018,02,15,07,16,0.40
2018,02,15,07,17,0.40
2018,02,15,07,18,0.40
2018,02,15,07,19,0.40
2018,02,15,07,20,0.40
2018,02,15,07,21,0.50
2018,02,15,07,22,0.50
2018,02,15,07,23,0.50
2018,02,15,07,24,0.50
2018,02,15,07,25,0.50
2018,02,15,07,26,0.50
2018,02,15,07,27,0.50
2018,02,15,07,28,0.60
2018,02,15,07,29,0.60
2018,02,15,07,30,0.60
2018,02,15,07,31,0.70
2018,02,15,07,32,0.70
2018,02,15,07,33,0.70
2018,02,15,07,34,0.70
2018,02,15,07,35,0.80
2018,02,15,07,36,0.80
2018,02,15,07,37,0.80
2018,02,15,07,38,0.90
2018,02,15,07,39,0.90
2018,02,15,07,40,1.00
2018,02,15,07,41,1.10
2018,02,15,07,42,1.10
2018,02,15,07,43,1.20
2018,02,15,07,44,1.20
2018,02,15,07,45,1.30
2018,02,15,07,46,1.30
2018,02,15,07,47,1.30
2018,02,15,07,48,1.40
2018,02,15,07,49,1.40
2018,02,15,07,50,1.50
2018,02,15,07,51,1.60
2018,02,15,07,52,1.60
2018,02,15,07,53,1.60
2018,02,15,07,54,1.70
2018,02,15,07,55,1.70
2018,02,15,07,56,1.80
2018,02,15,07,57,1.90
2018,02,15,07,58,1.90
2018,02,15,07,59,2.00
2018,02,15,08,00,2.10
2018,02,15,08,01,2.20
2018,02,15,08,02,2.20
2018,02,15,08,03,2.30
2018,02,15,08,04,2.30
2018,02,15,08,05,2.40
2018,02,15,08,06,2.40
2018,02,15,08,07,2.40
2018,02,15,08,08,2.50
2018,02,15,08,09,2.50
2018,02,15,08,10,2.60
2018,02,15,08,11,2.60
2018,02,15,08,12,2.60
2018,02,15,08,13,2.60
2018,02,15,08,14,2.60
2018,02,15,08,15,2.60
2018,02,15,08,16,2.60
2018,02,15,08,17,2.70
2018,02,15,08,18,2.70
2018,02,15,08,19,2.70
2018,02,15,08,20,2.70
2018,02,15,08,21,2.70
2018,02,15,08,22,2.70
2018,02,15,08,23,2.70
2018,02,15,08,24,2.70
2018,02,15,08,25,2.70
2018,02,15,08,26,2.80
2018,02,15,08,27,2.80
2018,02,15,08,28,2.80
2018,02,15,08,29,2.80
2018,02,15,08,30,2.80
2018,02,15,08,31,2.80
2018,02,15,08,32,2.80
2018,02,15,08,33,2.80
2018,02,15,08,34,2.80
2018,02,15,08,35,2.80
2018,02,15,08,36,2.80
2018,02,15,08,37,2.80
2018,02,15,08,38,2.80
2018,02,15,08,39,2.90
2018,02,15,08,40,2.90
2018,02,15,08,41,2.90
2018,02,15,08,42,2.90
2018,02,15,08,43,2.90
2018,02,15,08,44,2.90
2018,02,15,08,45,3.00
2018,02,15,08,46,3.00
2018,02,15,08,47,3.10
2018,02,15,08,48,3.10
2018,02,15,08,49,3.10
2018,02,15,08,50,3.20
2018,02,15,08,51,3.20
2018,02,15,08,52,3.20
2018,02,15,08,53,3.30
2018,02,15,08,54,3.30
2018,02,15,08,55,3.30
2018,02,15,08,56,3.30
2018,02,15,08,57,3.40
2018,02,15,08,58,3.40
2018,02,15,08,59,3.40
2018,02,15,09,00,3.40
2018,02,15,09,01,3.50
2018,02,15,09,02,3.50
2018,02,15,09,03,3.60
2018,02,15,09,04,3.60
2018,02,15,09,05,3.60
2018,02,15,09,06,3.70
2018,02,15,09,07,3.70
2018,02,15,09,08,3.70
2018,02,15,09,09,3.80
2018,02,15,09,10,3.80
2018,02,15,09,11,3.90
2018,02,15,09,12,3.90
2018,02,15,09,13,4.00
2018,02,15,09,14,4.00
2018,02,15,09,15,4.10
2018,02,15,09,16,4.10
2018,02,15,09,17,4.10
2018,02,15,09,18,4.20
2018,02,15,09,19,4.20
2018,02,15,09,20,4.20
2018,02,15,09,21,4.30
2018,02,15,09,22,4.30
2018,02,15,09,23,4.30
2018,02,15,09,24,4.30
2018,02,15,09,25,4.30
2018,02,15,09,26,4.40
2018,02,15,09,27,4.40
2018,02,15,09,28,4.40
2018,02,15,09,29,4.50
2018,02,15,09,30,4.50
2018,02,15,09,31,4.50
2018,02,15,09,32,4.60
2018,02,15,09,33,4.60
2018,02,15,09,34,4.70
2018,02,15,09,35,4.70
2018,02,15,09,36,4.70
2018,02,15,09,37,4.70
2018,02,15,09,38,4.80
2018,02,15,09,39,4.80
2018,02,15,09,40,4.80
2018,02,15,09,41,4.80
2018,02,15,09,42,4.90
2018,02,15,09,43,4.90
2018,02,15,09,44,4.90
2018,02,15,09,45,5.00
2018,02,15,09,46,5.10
2018,02,15,09,47,5.10
2018,02,15,09,48,5.10
2018,02,15,09,49,5.20
2018,02,15,09,50,5.20
2018,02,15,09,51,5.20
2018,02,15,09,52,5.30
2018,02,15,09,53,5.30
2018,02,15,09,54,5.30
2018,02,15,09,55,5.40
2018,02,15,09,56,5.40
2018,02,15,09,57,5.40
2018,02,15,09,58,5.40
2018,02,15,09,59,5.40
2018,02,15,10,00,5.40
2018,02,15,10,01,5.50
2018,02,15,10,02,5.50
2018,02,15,10,03,5.50
2018,02,15,10,04,5.60
2018,02,15,10,05,5.60
2018,02,15,10,06,5.60
2018,02,15,10,07,5.60
2018,02,15,10,08,5.60
2018,02,15,10,09,5.60
2018,02,15,10,10,5.60
2018,02,15,10,11,5.60
2018,02,15,10,12,5.60
2018,02,15,10,13,5.60
2018,02,15,10,14,5.60
2018,02,15,10,15,5.70
2018,02,15,10,16,5.70
2018,02,15,10,17,5.70
2018,02,15,10,18,5.70
2018,02,15,10,19,5.70
2018,02,15,10,20,5.70
2018,02,15,10,21,5.70
2018,02,15,10,22,5.70
2018,02,15,10,23,5.80
2018,02,15,10,24,5.80
2018,02,15,10,25,5.80
2018,02,15,10,26,5.80
2018,02,15,10,27,5.80
2018,02,15,10,28,5.90
2018,02,15,10,29,5.90
2018,02,15,10,30,5.90
2018,02,15,10,31,6.00
2018,02,15,10,32,6.00
2018,02,15,10,33,6.00
2018,02,15,10,34,6.00
2018,02,15,10,35,6.10
2018,02,15,10,36,6.10
2018,02,15,10,37,6.10
2018,02,15,10,38,6.10
2018,02,15,10,39,6.10
2018,02,15,10,40,6.10
2018,02,15,10,41,6.20
2018,02,15,10,42,6.20
2018,02,15,10,43,6.20
2018,02,15,10,44,6.20
2018,02,15,10,45,6.20
2018,02,15,10,46,6.20
2018,02,15,10,47,6.20
2018,02,15,10,48,6.10
2018,02,15,10,49,6.10
2018,02,15,10,50,6.10
2018,02,15,10,51,6.10
2018,02,15,10,52,6.10
2018,02,15,10,53,6.10
2018,02,15,10,54,6.10
2018,02,15,10,55,6.10
2018,02,15,10,56,6.10
2018,02,15,10,57,6.10
2018,02,15,10,58,6.00
2018,02,15,10,59,6.10
2018,02,15,11,00,6.10
2018,02,15,11,01,6.10
2018,02,15,11,02,6.10
2018,02,15,11,03,6.20
2018,02,15,11,04,6.20
2018,02,15,11,05,6.20
2018,02,15,11,06,6.30
2018,02,15,11,07,6.30
2018,02,15,11,08,6.40
2018,02,15,11,09,6.40
2018,02,15,11,10,6.40
2018,02,15,11,11,6.40
2018,02,15,11,12,6.40
2018,02,15,11,13,6.40
2018,02,15,11,14,6.40
2018,02,15,11,15,6.40
2018,02,15,11,16,6.40
2018,02,15,11,17,6.40
2018,02,15,11,18,6.30
2018,02,15,11,19,6.30
2018,02,15,11,20,6.30
2018,02,15,11,21,6.40
2018,02,15,11,22,6.40
2018,02,15,11,23,6.40
2018,02,15,11,24,6.40
2018,02,15,11,25,6.40
2018,02,15,11,26,6.30
2018,02,15,11,27,6.30
2018,02,15,11,28,6.30
2018,02,15,11,29,6.30
2018,02,15,11,30,6.30
2018,02,15,11,31,6.30
2018,02,15,11,32,6.30
2018,02,15,11,33,6.30
2018,02,15,11,34,6.30
2018,02,15,11,35,6.30
2018,02,15,11,36,6.30
2018,02,15,11,37,6.40
2018,02,15,11,38,6.40
2018,02,15,11,39,6.40
2018,02,15,11,40,6.50
2018,02,15,11,41,6.50
2018,02,15,11,42,6.50
2018,02,15,11,43,6.50
2018,02,15,11,44,6.50
2018,02,15,11,45,6.50
2018,02,15,11,46,6.50
2018,02,15,11,47,6.50
2018,02,15,11,48,6.40
2018,02,15,11,49,6.40
2018,02,15,11,50,6.40
2018,02,15,11,51,6.50
2018,02,15,11,52,6.50
2018,02,15,11,53,6.50
2018,02,15,11,54,6.40
2018,02,15,11,55,6.40
2018,02,15,11,56,6.40
2018,02,15,11,57,6.40
2018,02,15,11,58,6.30
2018,02,15,11,59,6.40
2018,02,15,12,00,6.40
2018,02,15,12,01,6.40
2018,02,15,12,02,6.40
2018,02,15,12,03,6.40
2018,02,15,12,04,6.40
2018,02,15,12,05,6.50
2018,02,15,12,06,6.50
2018,02,15,12,07,6.50
2018,02,15,12,08,6.50
2018,02,15,12,09,6.40
2018,02,15,12,10,6.40
2018,02,15,12,11,6.40
2018,02,15,12,12,6.40
2018,02,15,12,13,6.40
2018,02,15,12,14,6.40
2018,02,15,12,15,6.40
2018,02,15,12,16,6.40
2018,02,15,12,17,6.40
2018,02,15,12,18,6.40
2018,02,15,12,19,6.40
2018,02,15,12,20,6.40
2018,02,15,12,21,6.40
2018,02,15,12,22,6.40
2018,02,15,12,23,6.40
2018,02,15,12,24,6.40
2018,02,15,12,25,6.40
2018,02,15,12,26,6.40
2018,02,15,12,27,6.40
2018,02,15,12,28,6.40
2018,02,15,12,29,6.40
2018,02,15,12,30,6.40
2018,02,15,12,31,6.40
2018,02,15,12,32,6.50
2018,02,15,12,33,6.50
2018,02,15,12,34,6.50
2018,02,15,12,35,6.50
2018,02,15,12,36,6.50
2018,02,15,12,37,6.60
2018,02,15,12,38,6.60
2018,02,15,12,39,6.60
2018,02,15,12,40,6.60
2018,02,15,12,41,6.60
2018,02,15,12,42,6.60
2018,02,15,12,43,6.60
2018,02,15,12,44,6.50
2018,02,15,12,45,6.50
2018,02,15,12,46,6.60
2018,02,15,12,47,6.60
2018,02,15,12,48,6.60
2018,02,15,12,49,6.60
2018,02,15,12,50,6.60
2018,02,15,12,51,6.60
2018,02,15,12,52,6.60
2018,02,15,12,53,6.50
2018,02,15,12,54,6.50
2018,02,15,12,55,6.50
2018,02,15,12,56,6.50
2018,02,15,12,57,6.50
2018,02,15,12,58,6.40
2018,02,15,12,59,6.40
2018,02,15,13,00,6.40
2018,02,15,13,01,6.40
2018,02,15,13,02,6.50
2018,02,15,13,03,6.50
2018,02,15,13,04,6.50
2018,02,15,13,05,6.50
2018,02,15,13,06,6.50
2018,02,15,13,07,6.50
2018,02,15,13,08,6.50
2018,02,15,13,09,6.50
2018,02,15,13,10,6.50
2018,02,15,13,11,6.50
2018,02,15,13,12,6.50
2018,02,15,13,13,6.50
2018,02,15,13,14,6.50
2018,02,15,13,15,6.50
2018,02,15,13,16,6.60
2018,02,15,13,17,6.60
2018,02,15,13,18,6.60
2018,02,15,13,19,6.60
2018,02,15,13,20,6.60
2018,02,15,13,21,6.50
2018,02,15,13,22,6.50
2018,02,15,13,23,6.60
2018,02,15,13,24,6.60
2018,02,15,13,25,6.60
2018,02,15,13,26,6.60
2018,02,15,13,27,6.50
2018,02,15,13,28,6.50
2018,02,15,13,29,6.50
2018,02,15,13,30,6.50
2018,02,15,13,31,6.50
2018,02,15,13,32,6.50
2018,02,15,13,33,6.50
2018,02,15,13,34,6.40
2018,02,15,13,35,6.40
2018,02,15,13,36,6.50
2018,02,15,13,37,6.40
2018,02,15,13,38,6.40
2018,02,15,13,39,6.50
2018,02,15,13,40,6.50
2018,02,15,13,41,6.50
2018,02,15,13,42,6.50
2018,02,15,13,43,6.50
2018,02,15,13,44,6.50
2018,02,15,13,45,6.50
2018,02,15,13,46,6.50
2018,02,15,13,47,6.40
2018,02,15,13,48,6.40
2018,02,15,13,49,6.40
2018,02,15,13,50,6.40
2018,02,15,13,51,6.40
2018,02,15,13,52,6.40
2018,02,15,13,53,6.40
2018,02,15,13,54,6.40
2018,02,15,13,55,6.40
2018,02,15,13,56,6.40
2018,02,15,13,57,6.50
2018,02,15,13,58,6.50
2018,02,15,13,59,6.40
2018,02,15,14,00,6.40
2018,02,15,14,01,6.40
2018,02,15,14,02,6.40
2018,02,15,14,03,6.50
2018,02,15,14,04,6.40
2018,02,15,14,05,6.40
2018,02,15,14,06,6.40
2018,02,15,14,07,6.40
2018,02,15,14,08,6.40
2018,02,15,14,09,6.40
2018,02,15,14,10,6.40
2018,02,15,14,11,6.40
2018,02,15,14,12,6.40
2018,02,15,14,13,6.50
2018,02,15,14,14,6.50
2018,02,15,14,15,6.50
2018,02,15,14,16,6.50
2018,02,15,14,17,6.50
2018,02,15,14,18,6.50
2018,02,15,14,19,6.50
2018,02,15,14,20,6.60
2018,02,15,14,21,6.60
2018,02,15,14,22,6.60
2018,02,15,14,23,6.60
2018,02,15,14,24,6.60
2018,02,15,14,25,6.60
2018,02,15,14,26,6.60
2018,02,15,14,27,6.60
2018,02,15,14,28,6.60
2018,02,15,14,29,6.60
2018,02,15,14,30,6.60
2018,02,15,14,31,6.60
2018,02,15,14,32,6.60
2018,02,15,14,33,6.60
2018,02,15,14,34,6.60
2018,02,15,14,35,6.60
2018,02,15,14,36,6.60
2018,02,15,14,37,6.60
2018,02,15,14,38,6.60
2018,02,15,14,39,6.60
2018,02,15,14,40,6.60
2018,02,15,14,41,6.60
2018,02,15,14,42,6.60
2018,02,15,14,43,6.60
2018,02,15,14,44,6.60
2018,02,15,14,45,6.60
2018,02,15,14,46,6.60
2018,02,15,14,47,6.50
2018,02,15,14,48,6.60
2018,02,15,14,49,6.60
2018,02,15,14,50,6.60
2018,02,15,14,51,6.60
2018,02,15,14,52,6.60
2018,02,15,14,53,6.60
2018,02,15,14,54,6.60
2018,02,15,14,55,6.60
2018,02,15,14,56,6.70
2018,02,15,14,57,6.70
2018,02,15,14,58,6.70
2018,02,15,14,59,6.70
2018,02,15,15,00,6.80
2018,02,15,15,01,6.80
2018,02,15,15,02,6.80
2018,02,15,15,03,6.80
2018,02,15,15,04,6.80
2018,02,15,15,05,6.70
2018,02,15,15,06,6.70
2018,02,15,15,07,6.70
2018,02,15,15,08,6.70
2018,02,15,15,09,6.70
2018,02,15,15,10,6.70
2018,02,15,15,11,6.70
2018,02,15,15,12,6.70
2018,02,15,15,13,6.70
2018,02,15,15,14,6.70
2018,02,15,15,15,6.60
2018,02,15,15,16,6.60
2018,02,15,15,17,6.60
2018,02,15,15,18,6.60
2018,02,15,15,19,6.60
2018,02,15,15,20,6.50
2018,02,15,15,21,6.50
2018,02,15,15,22,6.50
2018,02,15,15,23,6.50
2018,02,15,15,24,6.50
2018,02,15,15,25,6.50
2018,02,15,15,26,6.50
2018,02,15,15,27,6.60
2018,02,15,15,28,6.60
2018,02,15,15,29,6.60
2018,02,15,15,30,6.60
2018,02,15,15,31,6.60
2018,02,15,15,32,6.60
2018,02,15,15,33,6.60
2018,02,15,15,34,6.60
2018,02,15,15,35,6.60
2018,02,15,15,36,6.60
2018,02,15,15,37,6.60
2018,02,15,15,38,6.60
2018,02,15,15,39,6.60
2018,02,15,15,40,6.60
2018,02,15,15,41,6.60
2018,02,15,15,42,6.60
2018,02,15,15,43,6.60
2018,02,15,15,44,6.60
2018,02,15,15,45,6.60
2018,02,15,15,46,6.60
2018,02,15,15,47,6.60
2018,02,15,15,48,6.60
2018,02,15,15,49,6.60
2018,02,15,15,50,6.60
2018,02,15,15,51,6.60
2018,02,15,15,52,6.70
2018,02,15,15,53,6.70
2018,02,15,15,54,6.70
2018,02,15,15,55,6.70
2018,02,15,15,56,6.70
2018,02,15,15,57,6.70
2018,02,15,15,58,6.70
2018,02,15,15,59,6.70
2018,02,15,16,00,6.70
2018,02,15,16,01,6.70
2018,02,15,16,02,6.70
2018,02,15,16,03,6.70
2018,02,15,16,04,6.70
2018,02,15,16,05,6.70
2018,02,15,16,06,6.70
2018,02,15,16,07,6.70
2018,02,15,16,08,6.70
2018,02,15,16,09,6.70
2018,02,15,16,10,6.70
2018,02,15,16,11,6.70
2018,02,15,16,12,6.70
2018,02,15,16,13,6.70
2018,02,15,16,14,6.70
2018,02,15,16,15,6.70
2018,02,15,16,16,6.70
2018,02,15,16,17,6.70
2018,02,15,16,18,6.70
2018,02,15,16,19,6.70
2018,02,15,16,20,6.70
2018,02,15,16,21,6.70
2018,02,15,16,22,6.70
2018,02,15,16,23,6.70
2018,02,15,16,24,6.70
2018,02,15,16,25,6.70
2018,02,15,16,26,6.70
2018,02,15,16,27,6.70
2018,02,15,16,28,6.70
2018,02,15,16,29,6.70
2018,02,15,16,30,6.70
2018,02,15,16,31,6.70
2018,02,15,16,32,6.70
2018,02,15,16,33,6.70
2018,02,15,16,34,6.70
2018,02,15,16,35,6.70
2018,02,15,16,36,6.70
2018,02,15,16,37,6.60
2018,02,15,16,38,6.60
2018,02,15,16,39,6.60
2018,02,15,16,40,6.60
2018,02,15,16,41,6.60
2018,02,15,16,42,6.60
2018,02,15,16,43,6.60
2018,02,15,16,44,6.60
2018,02,15,16,45,6.60
2018,02,15,16,46,6.60
2018,02,15,16,47,6.60
2018,02,15,16,48,6.60
2018,02,15,16,49,6.60
2018,02,15,16,50,6.60
2018,02,15,16,51,6.60
2018,02,15,16,52,6.60
2018,02,15,16,53,6.60
2018,02,15,16,54,6.60
2018,02,15,16,55,6.60
2018,02,15,16,56,6.60
2018,02,15,16,57,6.60
2018,02,15,16,58,6.50
2018,02,15,16,59,6.50
2018,02,15,17,00,6.50
2018,02,15,17,01,6.50
2018,02,15,17,02,6.50
2018,02,15,17,03,6.50
2018,02,15,17,04,6.50
2018,02,15,17,05,6.50
2018,02,15,17,06,6.50
2018,02,15,17,07,6.50
2018,02,15,17,08,6.50
2018,02,15,17,09,6.50
2018,02,15,17,10,6.50
2018,02,15,17,11,6.50
2018,02,15,17,12,6.50
2018,02,15,17,13,6.50
2018,02,15,17,14,6.50
2018,02,15,17,15,6.50
2018,02,15,17,16,6.50
2018,02,15,17,17,6.50
2018,02,15,17,18,6.50
2018,02,15,17,19,6.50
2018,02,15,17,20,6.50
2018,02,15,17,21,6.50
2018,02,15,17,22,6.50
2018,02,15,17,23,6.50
2018,02,15,17,24,6.50
2018,02,15,17,25,6.50
2018,02,15,17,26,6.50
2018,02,15,17,27,6.50
2018,02,15,17,28,6.40
2018,02,15,17,29,6.40
2018,02,15,17,30,6.40
2018,02,15,17,31,6.50
2018,02,15,17,32,6.50
2018,02,15,17,33,6.50
2018,02,15,17,34,6.50
2018,02,15,17,35,6.50
2018,02,15,17,36,6.50
2018,02,15,17,37,6.50
2018,02,15,17,38,6.50
2018,02,15,17,39,6.50
2018,02,15,17,40,6.50
2018,02,15,17,41,6.40
2018,02,15,17,42,6.50
2018,02,15,17,43,6.40
2018,02,15,17,44,6.50
2018,02,15,17,45,6.50
2018,02,15,17,46,6.50
2018,02,15,17,47,6.50
2018,02,15,17,48,6.50
2018,02,15,17,49,6.50
2018,02,15,17,50,6.50
2018,02,15,17,51,6.50
2018,02,15,17,52,6.50
2018,02,15,17,53,6.50
2018,02,15,17,54,6.50
2018,02,15,17,55,6.50
2018,02,15,17,56,6.50
2018,02,15,17,57,6.50
2018,02,15,17,58,6.50
2018,02,15,17,59,6.50
2018,02,15,18,00,6.50
2018,02,15,18,01,6.40
2018,02,15,18,02,6.40
2018,02,15,18,03,6.40
2018,02,15,18,04,6.40
2018,02,15,18,05,6.50
2018,02,15,18,06,6.50